Flag for U.S.A. Weather past 2 weeks in Glendale, California, U.S.A.

Now
99 °F

Sunny.


Feels Like: 96 °F
Forecast: 76 / 98 °F
Wind: 13 mph from Northwest

Location: Burbank-Glendale-Pasadena Airport

Current Time: Sep 15, 2014 at 6:40:05 PM

Latest Report: Sep 15, 2014 at 5:53 PM


Visibility: 10 mi

Pressure: 29.70 "Hg

Humidity: 18%

Dew point: 49 °F

Location of GlendaleLocation

Historic Weather in Glendale — Graph

°F

Glendale temperature yesterday

Maximum temperature yesterday: 103 °F (at 12:53 PM)
Minimum temperature yesterday: 74 °F (at 5:53 AM)
Average temperature yesterday: 90 °F

Past Weeks' High & Low Weather Summary

 TemperatureHumidityPressure
High103 °F (Sep 14, 12:53 PM)90% (Sep 5, 3:53 AM)29.90 "Hg (Sep 5, 3:53 AM)
Low62 °F (Sep 5, 5:53 AM)12% (Sep 14, 2:53 PM)29.65 "Hg (Sep 14, 4:53 PM)
Average79 °F48%29.78 "Hg
* Reported Aug 31 4:53 PM — Sep 15 4:53 PM, Glendale, Weather by CustomWeather, © 2014

Note: Actual official high and low records may vary slightly from our data, if they occured in-between our weather recording intervals... More about our weather records

Advertising

Glendale weather history for previous 24 hours

 ConditionsComfort  
Time TempWeatherWind HumidityBarometerVisibility
4:53 PM
Sep 15
103 °FSunny.12 mph17%29.69 "Hg10 mi
3:53 PM103 °FSunny.9 mph16%29.70 "Hg10 mi
2:53 PM101 °FSunny.8 mph19%29.71 "Hg10 mi
1:53 PM102 °FSunny.8 mph20%29.73 "Hg10 mi
12:53 PM101 °FSunny.8 mph20%29.75 "Hg10 mi
11:53 AM99 °FSunny.3 mph18%29.76 "Hg10 mi
10:53 AM96 °FSunny.3 mph23%29.78 "Hg10 mi
9:53 AM91 °FSunny.No wind28%29.78 "Hg10 mi
8:53 AM84 °FSunny.No wind40%29.78 "Hg10 mi
7:53 AM80 °FSunny.3 mph44%29.78 "Hg10 mi
6:53 AM76 °FClear.No wind54%29.76 "Hg10 mi
5:53 AM77 °FClear.No wind54%29.75 "Hg10 mi
4:53 AM78 °FClear.No wind50%29.73 "Hg10 mi
3:53 AM80 °FClear.No wind39%29.73 "Hg10 mi
2:53 AM81 °FClear.No wind44%29.74 "Hg10 mi
1:53 AM83 °FClear.6 mph43%29.74 "Hg10 mi
12:53 AM83 °FClear.3 mph44%29.73 "Hg10 mi
11:53 PM
Sep 14
84 °FClear.5 mph46%29.73 "Hg10 mi
10:53 PM86 °FClear.No wind36%29.72 "Hg10 mi
9:53 PM90 °FClear.3 mph24%29.71 "Hg10 mi
8:53 PM93 °FClear.8 mph22%29.69 "Hg10 mi
7:53 PM95 °FSunny.3 mph22%29.67 "Hg10 mi
6:53 PM98 °FSunny.9 mph18%29.66 "Hg10 mi
Weather by CustomWeather, © 2014

See weather overviewHow to use our weather pages